Regional Weather Roundup
Issued by NWS Spokane, WA

Home | Current Version | Previous Version | Text Only | Print | Product List | Glossary On
Versions: 1 2 3 4 5 6 7 8 9 10 11 12 13 14 15 16 17 18 19 20 21 22 23 24 25 26 27 28 29 30 31 32 33 34 35 36 37 38 39 40 41 42 43 44 45 46 47 48 49 50
000
NZUS01 KOTX 312305
RWROTX
EASTERN WASHINGTON/NORTHERN IDAHO ROUNDUP
NATIONAL WEATHER SERVICE, SPOKANE WA
400 PM PDT FRI JUL 31 2015

Note: "fair" indicated few or no clouds below 12,000 feet with no
significant weather and/or obstructions to visibility.

...NORTHEAST WASHINGTON AND NORTHERN IDAHO PANHANDLE...

CITY           SKY/WX    TMP DP  RH WIND       PRES   REMARKS
SPOKANE INTL   MOSUNNY   99  25   7 SW14G25   30.03F HX  92
SPOKANE DOWNTO SUNNY    101  28   7 VRB7G18   30.00F HX  94
COEUR D ALENE  SUNNY     99  37  12 W9        30.00F HX  93
DEER PARK      SUNNY    101  28   7 MISG      30.01F HX  94
SANDPOINT      SUNNY     97  32  10 SW10      30.01F HX  91
BONNERS FERRY  FAIR      99  36  11 SW13G18   30.00F HX  93

...SOUTHEAST WASHINGTON AND SOUTHERN IDAHO PANHANDLE...

CITY           SKY/WX    TMP DP  RH WIND       PRES   REMARKS
WALLA WALLA    SUNNY    104  33   8 CALM      29.94F HX  97
PULLMAN/MOSCOW SUNNY     98  28   8 W9        30.07F HX  92
LEWISTON       SUNNY    104  29   7 W7        29.95F HX  97
LOWELL           N/A    100  42  13 CALM      29.96F HX  95

...COLUMBIA BASIN...

CITY           SKY/WX    TMP DP  RH WIND       PRES   REMARKS
EPHRATA        SUNNY    102  36  10 S9        29.94F HX  96
MOSES LAKE     SUNNY    102  35  10 S7        29.95F HX  96
TRI CITIES     SUNNY    105  44  12 VRB3      29.89F HX 100
HERMISTON      SUNNY    103  41  12 VRB3      29.90F HX  98
PENDLETON      SUNNY    102  31   8 NW9       29.96F HX  95

...EAST SLOPES CASCADES...

CITY           SKY/WX    TMP DP  RH WIND       PRES   REMARKS
THE DALLES     SUNNY    109  27   6 NW14      29.87F HX 101
YAKIMA         SUNNY    106  36   9 SE9       29.92F HX  99
ELLENSBURG     SUNNY    105  30   7 W8        29.98F HX  98
WENATCHEE      SUNNY    102  33   9 SE9       29.92F HX  96
OMAK           MOSUNNY  103  25   6 S10       29.92F HX  95

...SOUTHERN BRITISH COLUMBIA...

CITY           SKY/WX    TMP DP  RH WIND       PRES   REMARKS

...WESTERN MONTANA...

CITY           SKY/WX    TMP DP  RH WIND       PRES   REMARKS
MISSOULA       SUNNY     93  31  11 VRB5      30.09F

...NEIGHBORING CITIES...

CITY           SKY/WX    TMP DP  RH WIND       PRES   REMARKS
SEATTLE        MOSUNNY   93  40  15 W8        30.03F



USA.gov is the U.S. government's official web portal to all federal, state and local government web resources and services.